Date_and_time,latitude,longitude,wind_speed,RelWindDirFrom,WindDirFrom,air_pressure,air_temperature,relative_humidity,Temp,platform_speed_wrt_ground,air_pressure_at_mean_sea_level,platform_orientation
2019-09-09 23:50,50.6304566666667,-96.9807716666667,17.8,20.5,68,987.57,16.1,65,16.81,0.0,1013.84,142.0
2019-09-10 00:00,50.6304566666667,-96.9807716666667,18.1,21.9,68,987.52,16.0,65,16.81,0.0,1013.78,360.0
2019-09-10 00:10,50.630455,-96.9807733333333,18.4,22.4,68,987.50,16.0,67,16.80,0.0,1013.77,360.0
2019-09-10 00:20,50.6304566666667,-96.9807766666667,19.5,24.5,71,987.43,15.8,67,16.81,0.0,1013.71,360.0
2019-09-10 00:30,50.630455,-96.9807733333333,20.6,24.8,74,987.31,15.8,66,16.81,0.0,1013.59,360.0
2019-09-10 00:40,50.630455,-96.9807733333333,18.9,21.8,71,987.29,15.7,68,16.82,0.0,1013.57,360.0
2019-09-10 00:50,50.63045,-96.9807716666667,20.5,25.0,71,987.19,15.6,68,16.82,0.0,1013.47,360.0
2019-09-10 01:00,50.63045,-96.9807783333333,20.9,27.4,73,987.15,15.6,68,16.82,0.0,1013.43,90.0
2019-09-10 01:10,50.6304533333333,-96.9807783333333,21.4,26.9,74,987.06,15.5,68,16.82,0.0,1013.35,90.0
2019-09-10 01:20,50.6304566666667,-96.9807916666667,21.9,25.8,73,987.08,15.3,69,16.82,0.0,1013.38,90.0
2019-09-10 01:30,50.6304483333333,-96.9807716666667,21.9,26.0,75,987.14,15.2,70,16.81,0.0,1013.45,90.0
2019-09-10 01:40,50.63045,-96.9807683333333,22.0,26.3,74,987.18,15.0,73,16.81,0.0,1013.50,90.0
2019-09-10 01:50,50.6304516666667,-96.9807716666667,21.7,27.8,73,987.21,14.8,75,16.80,0.0,1013.55,90.0
2019-09-10 02:00,50.6304533333333,-96.9807733333333,22.0,26.0,76,987.23,14.6,77,16.79,0.0,1013.58,90.0
2019-09-10 02:10,50.630455,-96.9807716666667,21.9,25.9,73,987.22,14.4,79,16.79,0.0,1013.59,90.0
2019-09-10 02:20,50.6304566666667,-96.9807733333333,21.2,26.2,72,987.17,14.3,82,16.78,0.0,1013.55,90.0
2019-09-10 02:30,50.6304566666667,-96.980775,22.0,25.9,75,987.04,14.2,83,16.76,0.0,1013.42,90.0
2019-09-10 02:40,50.6304566666667,-96.980775,23.5,27.8,72,986.83,14.2,84,16.74,0.0,1013.21,90.0
2019-09-10 02:50,50.6304566666667,-96.9807766666667,23.7,28.3,72,986.78,14.1,84,16.73,0.0,1013.16,90.0
2019-09-10 03:00,50.6304566666667,-96.9807766666667,22.9,27.2,71,986.75,14.1,85,16.72,0.0,1013.14,0.0
2019-09-10 03:10,50.6304566666667,-96.9807783333333,22.7,26.4,71,986.71,14.0,87,16.72,0.0,1013.11,0.0
2019-09-10 03:20,50.6304566666667,-96.9807766666667,23.1,28.2,72,986.69,14.0,89,16.72,0.0,1013.09,0.0
2019-09-10 03:30,50.630455,-96.9807783333333,22.7,26.9,73,986.69,13.9,89,16.72,0.0,1013.10,0.0
2019-09-10 03:40,50.630455,-96.9807783333333,23.4,28.0,73,986.59,13.9,88,16.71,0.0,1013.02,0.0
2019-09-10 03:50,50.6304566666667,-96.9807783333333,21.6,28.6,73,986.52,13.9,90,16.70,0.0,1012.95,0.0
2019-09-10 04:00,50.6304566666667,-96.9807783333333,24.0,27.9,69,986.36,13.8,89,16.69,0.0,1012.80,90.0
2019-09-10 04:10,50.6304566666667,-96.9807783333333,22.4,26.9,71,986.39,13.8,90,16.68,0.0,1012.83,90.0
2019-09-10 04:20,50.6304566666667,-96.98078,22.4,28.0,71,986.30,13.8,91,16.67,0.0,1012.74,90.0
2019-09-10 04:30,50.6304566666667,-96.98078,21.0,25.4,69,986.26,13.8,91,16.67,0.0,1012.70,90.0
2019-09-10 04:40,50.6304566666667,-96.98078,21.7,25.2,68,986.19,13.8,92,16.67,0.0,1012.64,90.0
2019-09-10 04:50,50.6304583333333,-96.98078,21.4,25.5,70,986.18,13.7,92,16.67,0.0,1012.64,90.0
2019-09-10 05:00,50.6304583333333,-96.98078,20.4,25.6,69,986.20,13.7,94,16.68,0.0,1012.66,305.3
2019-09-10 05:10,50.6304566666667,-96.9807783333333,20.5,24.8,69,986.13,13.6,93,16.67,0.0,1012.59,305.3
2019-09-10 05:20,50.6304566666667,-96.9807833333333,20.5,23.4,66,986.01,13.7,94,16.65,0.0,1012.47,305.3
2019-09-10 05:30,50.6304566666667,-96.980785,20.4,24.9,66,985.93,13.6,94,16.64,0.0,1012.39,305.3
2019-09-10 05:40,50.630455,-96.98078,19.5,22.5,65,985.87,13.5,95,16.62,0.0,1012.33,305.3
2019-09-10 05:50,50.6304383333333,-96.9807683333333,19.7,23.0,66,985.86,13.5,95,16.62,0.0,1012.33,305.3
2019-09-10 06:00,50.6304533333333,-96.9807716666667,19.8,23.7,66,985.85,13.5,94,16.63,0.0,1012.32,0.0
2019-09-10 06:10,50.6304583333333,-96.9807766666667,19.2,23.2,66,985.87,13.6,95,16.64,0.0,1012.33,0.0
2019-09-10 06:20,50.63046,-96.98078,19.7,23.6,66,985.86,13.5,94,16.64,0.0,1012.33,0.0
2019-09-10 06:30,50.6304583333333,-96.98078,19.2,22.5,64,985.95,13.6,95,16.63,0.0,1012.42,0.0
2019-09-10 06:40,50.6304583333333,-96.9807816666667,18.2,22.6,64,986.04,13.5,95,16.61,0.0,1012.52,0.0
2019-09-10 06:50,50.63046,-96.9807816666667,18.1,21.4,65,986.08,13.5,96,16.58,0.0,1012.55,0.0
2019-09-10 07:00,50.6304583333333,-96.98078,17.5,20.0,63,986.08,13.5,97,16.57,0.0,1012.55,360.0
2019-09-10 07:10,50.6304583333333,-96.98078,18.0,21.7,67,986.04,13.6,96,16.56,0.0,1012.52,360.0
2019-09-10 07:20,50.6304583333333,-96.98078,18.5,21.3,67,986.06,13.6,96,16.55,0.0,1012.54,360.0
2019-09-10 07:30,50.6304583333333,-96.9807816666667,17.2,20.3,68,986.12,13.6,97,16.54,0.0,1012.60,360.0
2019-09-10 07:40,50.63046,-96.9807733333333,16.6,20.0,67,986.16,13.6,96,16.53,0.0,1012.65,360.0
2019-09-10 07:50,50.630455,-96.980795,16.9,19.8,66,986.19,13.5,95,16.52,0.0,1012.68,360.0
2019-09-10 08:00,50.6304516666667,-96.980785,16.3,18.9,62,986.21,13.5,95,16.51,0.0,1012.70,142.0
2019-09-10 08:10,50.630455,-96.9807866666667,16.3,20.0,65,986.16,13.5,95,16.51,0.0,1012.64,142.0
2019-09-10 08:20,50.630455,-96.9807833333333,16.5,20.2,62,986.12,13.5,95,16.50,0.0,1012.61,142.0
2019-09-10 08:30,50.6304533333333,-96.98078,17.6,21.7,61,985.99,13.4,95,16.50,0.0,1012.48,142.0
2019-09-10 08:40,50.6304533333333,-96.9807816666667,17.8,21.3,60,985.97,13.4,94,16.50,0.0,1012.45,142.0
2019-09-10 08:50,50.6304533333333,-96.98078,17.5,21.7,62,985.98,13.5,94,16.50,0.0,1012.46,142.0
2019-09-10 09:00,50.6304533333333,-96.98078,18.1,21.6,60,985.89,13.5,93,16.49,0.0,1012.37,270.0
2019-09-10 09:10,50.6304533333333,-96.9807783333333,18.2,22.0,57,985.86,13.4,92,16.47,0.0,1012.34,270.0
2019-09-10 09:20,50.630455,-96.9807783333333,18.1,22.1,56,985.86,13.4,92,16.46,0.0,1012.34,270.0
2019-09-10 09:30,50.630455,-96.98078,19.3,22.7,57,985.91,13.3,92,16.45,0.0,1012.39,270.0
2019-09-10 09:40,50.630455,-96.9807783333333,19.1,22.8,54,985.91,13.3,93,16.43,0.0,1012.40,270.0
2019-09-10 09:50,50.630455,-96.9807783333333,19.1,22.3,54,985.96,13.3,93,16.43,0.0,1012.46,270.0
2019-09-10 10:00,50.6304516666667,-96.9807666666667,19.8,22.3,53,986.01,13.2,91,16.40,0.0,1012.51,111.5
2019-09-10 10:10,50.6304583333333,-96.9807716666667,18.4,21.7,54,986.11,13.3,91,16.38,0.0,1012.61,111.5
2019-09-10 10:20,50.6304583333333,-96.9807716666667,18.1,21.9,51,986.16,13.3,90,16.39,0.0,1012.66,111.5
2019-09-10 10:30,50.6304466666667,-96.9807733333333,18.8,22.7,50,986.16,13.3,90,16.40,0.0,1012.66,111.5
2019-09-10 10:40,50.6304516666667,-96.9807733333333,19.0,22.9,50,986.12,13.3,89,16.36,0.0,1012.61,111.5
2019-09-10 10:50,50.630465,-96.9807816666667,19.3,23.6,51,986.18,13.3,87,16.32,0.0,1012.68,111.5
2019-09-10 11:00,50.6304566666667,-96.980785,17.8,23.9,49,986.32,13.4,87,16.29,0.0,1012.83,90.0
2019-09-10 11:10,50.6304533333333,-96.980785,18.6,22.1,44,986.32,13.4,87,16.27,0.0,1012.83,90.0
2019-09-10 11:20,50.6304533333333,-96.9807833333333,18.3,23.0,43,986.29,13.5,87,16.25,0.0,1012.80,90.0
2019-09-10 11:30,50.630455,-96.980785,18.9,24.4,42,986.33,13.5,86,16.25,0.0,1012.83,90.0
2019-09-10 11:40,50.6304566666667,-96.9807833333333,18.8,22.7,36,986.44,13.5,86,16.25,0.0,1012.95,90.0
2019-09-10 11:50,50.6304566666667,-96.9807816666667,20.4,23.8,40,986.44,13.4,86,16.24,0.0,1012.95,90.0
2019-09-10 12:00,50.6304583333333,-96.9807816666667,20.4,24.3,38,986.36,13.5,85,16.23,0.0,1012.87,360.0
2019-09-10 12:10,50.6304583333333,-96.98078,20.3,24.5,43,986.53,13.5,85,16.21,0.0,1013.04,360.0
2019-09-10 12:20,50.63048,-96.9807683333333,20.9,25.9,44,986.62,13.4,84,16.19,0.0,1013.13,360.0
2019-09-10 12:30,50.6304616666667,-96.98076,21.3,25.6,42,986.65,13.4,84,16.18,0.0,1013.16,360.0
2019-09-10 12:40,50.630465,-96.9807733333333,21.2,26.3,41,986.77,13.3,85,16.18,0.0,1013.30,360.0
2019-09-10 12:50,50.6304466666667,-96.9807833333333,21.7,25.6,43,986.81,13.2,85,16.18,0.0,1013.34,360.0
2019-09-10 13:00,50.6304483333333,-96.98077,21.7,25.8,40,986.87,13.2,86,16.17,0.0,1013.40,360.0
2019-09-10 13:10,50.6304416666667,-96.98077,21.2,26.0,44,987.12,13.1,85,16.17,0.0,1013.66,360.0
2019-09-10 13:20,50.6304516666667,-96.98078,21.4,26.0,38,987.17,13.1,86,16.16,0.0,1013.71,360.0
2019-09-10 13:30,50.6304633333333,-96.9807833333333,22.6,26.4,40,987.25,13.0,87,16.16,0.0,1013.79,360.0
2019-09-10 13:40,50.6304583333333,-96.9807766666667,22.1,25.2,41,987.32,13.0,87,16.16,0.0,1013.87,360.0
2019-09-10 13:50,50.6304583333333,-96.9807833333333,22.1,26.0,42,987.46,13.0,87,16.15,0.0,1014.01,360.0
2019-09-10 14:00,50.6304583333333,-96.980785,20.9,25.1,45,987.78,13.1,87,16.14,0.0,1014.34,360.0
2019-09-10 14:10,50.63046,-96.9807866666667,21.1,25.6,40,987.88,13.0,87,16.13,0.0,1014.44,360.0
2019-09-10 14:20,50.63045,-96.9807866666667,21.2,25.2,41,987.98,12.9,87,16.12,0.0,1014.56,360.0
2019-09-10 14:30,50.6304683333333,-96.9807816666667,21.2,25.0,40,988.02,12.8,89,16.10,0.0,1014.61,360.0
2019-09-10 14:40,50.6304633333333,-96.98078,21.9,25.8,41,988.05,12.7,91,16.09,0.0,1014.65,360.0
2019-09-10 14:50,50.6304633333333,-96.9807833333333,22.8,27.4,43,987.92,12.6,92,16.08,0.0,1014.52,360.0
2019-09-10 15:00,50.6304633333333,-96.980785,22.6,27.1,43,987.96,12.6,92,16.06,0.0,1014.55,360.0
2019-09-10 15:10,50.6304516666667,-96.9807783333333,23.3,27.3,41,988.03,12.4,93,16.05,0.0,1014.64,360.0
2019-09-10 15:20,50.6304666666667,-96.9807716666667,21.4,26.5,43,988.29,12.4,94,16.03,0.0,1014.92,360.0
2019-09-10 15:30,50.6304666666667,-96.9807833333333,20.9,24.1,45,988.59,12.4,93,16.01,0.0,1015.22,360.0
2019-09-10 15:40,50.630465,-96.9807816666667,20.9,25.8,53,988.76,12.6,90,16.00,0.0,1015.38,360.0
2019-09-10 15:50,50.630465,-96.9807833333333,19.9,25.8,56,988.93,12.8,88,15.98,0.0,1015.55,360.0
2019-09-10 16:00,50.630465,-96.98078,20.5,25.6,57,989.09,13.0,85,15.97,0.0,1015.70,332.6
2019-09-10 16:10,50.6304633333333,-96.98078,21.6,25.9,57,989.20,13.1,85,15.97,0.0,1015.82,332.6
2019-09-10 16:20,50.6304416666667,-96.9807833333333,21.7,26.6,57,989.27,13.1,86,15.97,0.0,1015.89,332.6
2019-09-10 16:30,50.630455,-96.98078,22.4,26.3,56,989.44,13.2,86,15.97,0.0,1016.07,332.6
2019-09-10 16:40,50.6304666666667,-96.980805,21.6,26.0,59,989.50,13.3,86,15.96,0.0,1016.13,332.6
2019-09-10 16:50,50.6304583333333,-96.9807766666667,22.1,27.0,59,989.51,13.5,84,15.96,0.0,1016.13,332.6
2019-09-10 17:00,50.6304766666667,-96.9808316666667,20.0,24.1,57,989.64,13.7,84,15.96,0.0,1016.27,306.0
2019-09-10 17:10,50.63046,-96.980745,19.3,23.2,55,989.75,13.7,82,15.96,0.0,1016.38,306.0
2019-09-10 17:20,50.6304616666667,-96.9807866666667,18.3,21.8,57,989.80,13.8,81,15.97,0.0,1016.42,306.0
2019-09-10 17:30,50.6304616666667,-96.9807883333333,19.1,22.8,55,989.89,13.9,81,15.97,0.0,1016.50,306.0
2019-09-10 17:40,50.6304566666667,-96.9807983333333,17.9,22.1,49,989.90,14.1,81,15.98,0.0,1016.49,306.0
2019-09-10 17:50,50.63046,-96.980775,19.5,22.7,54,989.86,14.2,79,15.97,0.0,1016.44,306.0
2019-09-10 18:00,50.6304333333333,-96.9807883333333,18.9,22.8,56,989.86,14.3,77,15.97,0.0,1016.44,360.0
2019-09-10 18:10,50.6304616666667,-96.9807633333333,18.5,22.5,57,989.95,14.5,76,15.98,0.0,1016.51,360.0
2019-09-10 18:20,50.6304616666667,-96.98076,17.7,21.9,55,990.15,14.5,76,15.99,0.0,1016.71,360.0
2019-09-10 18:30,50.630465,-96.980765,17.2,20.5,53,990.22,14.6,76,16.01,0.0,1016.78,360.0
2019-09-10 18:40,50.6304633333333,-96.9807683333333,15.4,18.8,47,990.40,14.6,77,16.05,0.0,1016.96,360.0
2019-09-10 18:50,50.630465,-96.98077,16.5,20.6,45,990.43,14.6,77,16.07,0.0,1016.98,360.0
2019-09-10 19:00,50.63046,-96.98077,16.8,20.9,43,990.53,14.6,77,16.07,0.0,1017.08,130.6
2019-09-10 19:10,50.6304633333333,-96.9807866666667,17.3,23.1,42,990.34,14.7,76,16.07,0.0,1016.87,130.6
2019-09-10 19:20,50.6304633333333,-96.9807883333333,17.5,20.3,47,990.24,14.9,76,16.11,0.0,1016.75,130.6
2019-09-10 19:30,50.6304583333333,-96.9807833333333,18.1,21.9,53,990.42,14.9,75,16.15,0.0,1016.93,130.6
2019-09-10 19:40,50.6304433333333,-96.9807816666667,18.8,22.8,48,990.42,14.9,75,16.17,0.0,1016.93,130.6
2019-09-10 19:50,50.6304583333333,-96.98079,17.0,20.9,47,990.74,15.0,75,16.19,0.0,1017.25,130.6
2019-09-10 20:00,50.6304616666667,-96.9807866666667,15.0,18.7,48,990.96,15.0,74,16.20,0.0,1017.46,121.3
2019-09-10 20:10,50.6304616666667,-96.98078,14.5,17.3,43,991.10,14.9,75,16.16,0.0,1017.60,121.3
2019-09-10 20:20,50.6304616666667,-96.98078,14.4,17.6,45,991.19,14.9,76,16.11,0.0,1017.70,121.3
2019-09-10 20:30,50.6304616666667,-96.9807766666667,14.5,16.9,42,991.38,15.0,74,16.14,0.0,1017.90,121.3
2019-09-10 20:40,50.63046,-96.9807766666667,14.8,18.0,41,991.41,14.9,77,16.17,0.0,1017.93,121.3
2019-09-10 20:50,50.6304583333333,-96.9807783333333,13.8,16.0,40,991.43,14.8,78,16.19,0.0,1017.95,121.3
2019-09-10 21:00,50.6304716666667,-96.9807733333333,13.2,15.4,42,991.59,14.8,78,16.19,0.0,1018.11,360.0
2019-09-10 21:10,50.6304633333333,-96.9807883333333,12.7,14.9,44,991.74,14.9,77,16.17,0.0,1018.25,360.0
2019-09-10 21:20,50.6304616666667,-96.98077,13.0,15.0,45,991.89,15.0,75,16.17,0.0,1018.40,360.0
2019-09-10 21:30,50.6304633333333,-96.9807766666667,14.7,17.8,43,991.91,15.0,75,16.16,0.0,1018.42,360.0
2019-09-10 21:40,50.6304633333333,-96.9807733333333,16.6,20.9,48,991.96,14.9,79,16.15,0.0,1018.47,360.0
2019-09-10 21:50,50.6304616666667,-96.980775,18.0,21.5,65,991.99,14.3,85,16.14,0.0,1018.53,360.0
2019-09-10 22:00,50.6304633333333,-96.9807766666667,15.2,17.6,67,992.16,13.9,89,16.15,0.0,1018.72,347.4
2019-09-10 22:10,50.6304633333333,-96.9807766666667,9.4,13.1,62,992.27,13.8,85,16.15,0.0,1018.84,347.4
2019-09-10 22:20,50.6304566666667,-96.9807716666667,8.3,10.3,43,992.21,13.8,83,16.14,0.0,1018.78,347.4
2019-09-10 22:30,50.6304616666667,-96.9807766666667,4.7,6.5,52,992.28,13.9,79,16.13,0.0,1018.85,347.4
2019-09-10 22:40,50.6304666666667,-96.9807766666667,5.5,6.9,51,992.43,14.2,80,16.11,0.0,1019.00,347.4
2019-09-10 22:50,50.630465,-96.9807766666667,7.3,8.5,41,992.34,14.4,79,16.09,0.0,1018.90,347.4
2019-09-10 23:00,50.630465,-96.98078,7.1,9.1,37,992.46,14.5,81,16.07,0.0,1019.01,48.3
2019-09-10 23:10,50.630465,-96.9807833333333,11.8,15.9,53,992.42,14.8,76,16.07,0.0,1018.95,48.3
2019-09-10 23:20,50.6304633333333,-96.9807833333333,13.4,16.0,58,992.45,14.9,73,16.07,0.0,1018.97,48.3
